カタログに戻る

COSMOS 2491 DEB

運用中PO
NORAD 57563·DEBRIS·🇷🇺 Russia

打ち上げ Dec 25, 2013 から Plesetsk Cosmodrome

Loading…

次のパス (今後24時間)

TLE

最新Source: Space-Track

元期: Sep 13, 2026, 05:42 UTC

1 57563U 13076BA  26256.23807481  .00001691  00000-0  92851-2 0  9991
2 57563  82.4719  80.2688 0049373 199.5154 160.4048 12.62840468153734

AllMySatでCOSMOS 2491 DEBをリアルタイム追跡

Download on the App Store